CAPE
0 0 41 55 50 39 28 39 18 14 33 36 56 78 102 130 228 282 105 266 103 44 6 2 4 6 185 197 0 0 0 0 0 1 4 4 18 35 85 1 1 0 0 3 4 10 16 0 0 0 0 0 0 0
0 0 23 55 35 12 28 57 29 6 31 45 61 82 66 139 160 174 31 135 262 11 7 2 1 9 3 237 159 10 6 0 0 0 9 19 22 19 24 36 10 70 3 38 9 16 9 0 2 0 0 0 0 0
0 0 3 35 43 10 11 28 23 15 10 31 65 121 89 147 154 46 23 4 0 4 6 3 0 0 4 0 0 0 2 5 23 10 23 15 7 8 26 182 4 1 15 25 51 0 0 0 0 0 0 0 0 0
0 0 0 18 36 23 11 15 22 14 9 27 82 111 63 57 62 20 21 22 36 9 10 3 7 4 0 0 0 17 0 4 2 1 7 12 10 0 5 20 83 2 1 0 20 5 0 0 0 0 0 0 0 0
0 0 0 0 24 33 17 5 17 27 16 16 66 131 118 66 14 3 11 6 2 56 25 9 5 4 5 0 14 4 0 0 3 3 5 11 4 0 0 0 0 0 0 3 20 12 0 0 0 0 0 0 0 0
3 0 0 0 0 0 15 25 6 14 28 7 27 4 10 5 0 0 0 1 1 3 13 10 32 22 4 2 1 0 0 2 3 17 12 4 0 0 3 5 0 0 0 0 0 0 0 0 0 0 0 0 0 0
3 0 0 0 0 0 0 7 26 4 0 6 17 23 7 1 9 6 16 13 0 1 36 32 22 22 10 9 8 6 2 11 2 13 8 2 0 0 2 2 0 0 0 0 0 0 0 0 0 0 0 0 0 0
8 0 0 0 0 0 0 0 0 1 0 0 0 1 4 9 10 11 10 0 0 13 24 22 24 31 12 47 28 25 36 23 18 12 5 11 3 1 0 0 0 0 0 0 0 0 0 0 0 0 0 0 0 0
0 1 5 0 0 0 0 0 0 0 0 0 0 0 0 6 5 0 0 0 0 19 29 16 23 33 17 23 22 27 8 17 1 18 6 8 10 0 0 0 0 0 0 0 0 0 0 0 0 0 0 0 0 0
0 2 11 7 2 0 0 0 0 0 0 0 11 0 50 0 0 0 1 32 144 23 10 16 14 31 18 17 13 5 6 0 2 3 0 4 0 0 0 0 0 0 0 0 0 0 0 0 0 0 0 0 0 0
4 4 22 15 0 0 0 0 0 0 0 0 0 6 0 0 19 0 3 1 0 4 10 29 3 2 1 12 6 5 8 7 0 0 11 5 1 0 0 0 1 0 0 0 0 0 0 0 0 3 6 1 0 0
30 24 4 0 0 0 0 0 0 0 0 0 0 0 0 2 0 0 0 0 1 5 7 11 14 4 21 19 23 22 2 4 10 0 9 3 13 2 2 5 5 2 3 4 4 3 2 2 3 4 8 4 2 0
1 0 0 0 0 0 0 0 0 0 0 3 0 0 0 0 1 0 1 5 15 17 19 20 27 29 44 29 8 6 4 10 6 19 3 13 6 12 2 9 6 2 3 6 5 2 2 2 0 1 3 0 0 0
0 0 0 0 0 0 0 0 0 0 35 19 3 0 10 15 16 17 24 24 6 28 44 57 39 34 42 6 4 9 7 11 14 11 6 38 17 4 5 7 4 4 4 3 4 3 4 7 6 7 7 8 2 5
0 0 0 0 0 0 0 0 0 6 26 21 7 8 4 8 3 7 3 13 23 52 77 70 66 43 36 6 11 8 10 10 14 19 78 55 20 2 1 2 2 3 12 8 21 18 7 6 7 4 6 8 4 1
0 0 1 0 0 0 0 0 0 0 0 7 10 14 18 24 9 22 13 71 65 121 63 29 20 31 20 22 2 3 9 7 19 70 51 12 4 1 7 7 20 13 18 22 28 20 12 10 8 6 4 3 3 2
2 19 0 0 0 0 0 0 0 0 0 3 4 2 15 105 14 60 70 47 62 82 122 23 0 2 27 18 11 9 9 71 53 62 1 4 2 7 5 13 9 8 5 6 17 5 7 9 5 4 4 6 6 4
33 35 0 0 0 0 0 0 0 2 3 13 54 8 13 17 5 12 64 123 143 103 69 55 71 23 41 18 37 133 21 46 38 22 34 19 8 16 15 11 10 3 7 12 11 6 5 4 3 5 5 4 2 0
12 10 0 0 0 1 0 0 2 4 12 11 13 10 16 2 11 8 11 16 32 110 115 61 20 31 42 77 215 103 43 19 17 17 17 7 6 17 23 14 13 7 9 11 13 14 10 9 3 2 2 6 8 4
0 0 0 0 0 1 0 0 0 2 20 59 38 67 49 28 13 8 24 48 3 48 52 14 3 54 128 143 157 160 111 65 16 14 13 13 16 8 14 13 8 10 8 10 11 7 12 6 3 3 3 2 3 4
3 2 0 0 10 2 0 4 5 9 6 7 20 68 60 18 44 53 85 58 46 36 47 61 102 169 65 95 182 158 40 20 12 8 9 16 24 12 18 17 19 18 13 13 11 7 2 16 11 13 14 48 6 20
8 5 1 1 4 1 2 2 9 2 5 12 8 70 69 109 85 91 91 59 51 93 93 96 103 151 90 69 142 77 8 17 20 8 4 4 9 17 18 25 21 27 22 24 24 42 22 15 30 30 31 7 6 19
2 5 17 0 1 0 0 5 8 4 6 8 18 28 65 107 97 115 85 77 57 94 109 81 6 34 120 106 109 66 20 20 25 35 29 35 27 49 36 42 33 52 36 23 22 37 33 5 4 37 7 11 16 16
8 15 6 10 4 7 5 10 16 12 20 4 17 14 35 97 4 58 68 99 117 36 24 16 23 63 137 111 101 84 44 45 45 41 50 38 17 19 30 31 37 25 19 15 26 37 35 30 6 18 20 12 10 12
5 12 8 13 3 16 8 12 12 16 27 23 10 16 55 5 8 4 15 77 132 5 3 3 4 73 123 144 121 82 45 78 51 32 34 39 40 45 28 20 21 19 13 37 31 3 7 4 6 33 10 14 9 7
5 3 3 4 7 6 19 10 13 15 15 14 22 23 38 70 30 24 20 95 6 1 5 9 3 4 45 64 35 4 42 57 48 41 14 24 30 6 3 1 2 7 16 30 14 9 28 21 23 26 34 20 2 13
3 6 3 0 0 1 9 13 10 19 27 19 20 27 49 26 22 31 2 5 6 6 6 5 6 5 3 4 1 2 2 7 31 27 10 17 21 15 11 2 3 11 10 13 11 9 16 30 40 24 13 46 39 33
0 1 0 0 0 1 5 5 11 15 28 2 2 29 22 23 14 5 7 6 3 4 5 4 4 4 3 2 0 0 3 2 0 0 0 1 1 1 3 6 2 0 17 6 0 1 7 53 73 85 76 35 49 34
0 0 0 0 0 0 0 1 2 10 1 2 7 7 15 5 4 7 8 2 3 5 8 1 5 11 4 3 5 11 6 5 4 5 5 7 10 6 7 10 7 12 25 14 0 1 26 32 40 3 3 15 51 42
0 0 0 0 0 0 0 6 22 12 2 1 4 1 0 4 24 7 2 4 5 11 10 10 8 9 9 19 10 6 13 7 6 12 25 22 9 12 10 7 3 8 7 41 29 18 0 2 3 11 3 11 15 32
0 0 0 0 0 0 7 13 14 7 2 1 1 6 3 6 14 10 12 8 6 7 9 5 3 4 10 15 12 13 13 14 7 6 10 13 7 10 10 3 3 4 3 2 1 14 36 24 13 16 10 13 8 7
0 0 0 0 0 3 5 6 7 8 8 10 10 16 14 18 13 14 0 3 6 8 6 9 9 7 20 19 35 14 1 5 4 10 13 14 17 15 14 14 14 18 17 24 6 16 13 13 17 5 17 3 0 0
0 1 1 1 0 1 6 2 0 1 4 4 5 8 14 12 2 2 3 4 6 7 10 10 8 8 3 5 13 8 3 3 1 0 1 0 1 11 16 20 21 16 15 21 13 31 20 18 11 1 0 2 2 0
CIN
0 0 0 0 0 0 0 0 0 0 0 -1 -2 -23 -11 -6 -2 0 -1 0 0 0 0 0 0 0 -9 -5 0 0 0 0 0 0 -2 0 0 0 0 -13 0 0 0 0 0 -9 -10 0 0 0 0 -3 0 0
0 0 0 0 0 -6 -4 0 0 0 -1 -1 -12 -11 -8 -3 -1 -1 0 0 0 -2 0 0 0 0 -1 -1 -2 0 0 0 0 0 -5 0 -7 0 -1 0 0 0 0 -39 -4 -62 -81 -11 0 0 0 0 0 0
0 0 0 0 0 -2 0 0 0 0 0 -4 -4 -4 -13 -4 -1 -4 0 -1 0 0 0 0 0 0 0 0 0 0 0 0 0 0 0 0 -1 -3 0 0 -23 0 0 -16 0 -6 0 0 0 0 0 0 0 0
0 0 0 0 0 0 0 0 0 0 0 -4 -18 -6 -18 -2 -3 -1 0 -2 0 0 0 0 0 0 0 0 0 0 0 0 0 0 0 0 -3 0 -10 -8 0 -1 0 0 -5 -1 0 0 0 0 0 0 0 0
0 0 0 0 0 0 0 0 0 0 0 0 -2 -3 -5 -6 -2 0 0 0 0 0 0 0 0 0 0 -1 -1 0 0 0 0 0 0 0 0 0 0 0 0 0 0 0 0 0 0 0 0 0 0 0 0 0
-5 0 0 0 0 0 -4 0 0 0 0 0 0 0 0 0 0 0 0 0 0 0 0 0 0 0 0 0 0 0 0 0 0 0 0 0 0 0 0 0 0 0 0 0 0 0 0 0 0 0 0 0 0 0
-7 0 0 0 0 0 0 -20 -1 -4 0 0 0 0 0 0 0 0 0 0 0 0 0 0 0 0 0 0 0 0 0 0 0 0 0 0 0 0 0 0 0 0 0 0 0 0 0 0 0 0 0 0 0 0
-2 0 0 0 0 0 0 0 0 -22 0 0 0 -15 -1 -1 -1 0 0 0 0 0 0 0 0 0 0 0 0 0 0 0 0 0 0 0 0 0 0 0 0 0 0 0 0 0 0 0 0 0 0 0 0 0
0 -2 0 0 0 0 0 0 0 0 0 0 0 0 0 -17 0 0 0 0 -15 0 0 0 0 0 0 0 0 0 0 0 0 0 0 0 0 0 0 0 0 0 0 0 0 0 0 0 0 0 0 0 0 0
0 -3 -4 0 0 0 0 0 0 0 0 0 -25 -1 -19 0 0 0 -1 -14 0 0 0 0 0 0 0 0 0 0 0 0 0 0 0 0 0 0 0 0 0 0 0 0 0 0 0 0 0 0 0 0 0 0
0 -1 -1 0 0 0 0 0 0 0 0 0 0 -33 0 0 -39 0 -21 -9 0 0 0 0 0 0 -1 0 -1 0 0 0 0 -1 0 0 0 0 0 0 0 0 0 0 0 0 0 0 0 0 0 0 0 0
0 0 -2 0 0 0 0 0 0 0 0 0 0 0 0 -17 -6 0 0 0 0 0 0 0 0 0 0 0 0 -3 -7 -6 0 0 -1 0 0 0 0 0 0 0 0 0 0 0 0 0 0 0 0 0 0 0
0 -1 0 0 0 0 0 0 0 0 0 -68 -6 0 0 0 0 0 0 0 0 0 0 0 0 0 -1 -3 -21 -17 0 0 0 0 0 0 0 0 0 0 0 0 0 0 0 0 0 0 0 0 0 0 0 0
0 0 0 0 0 0 0 0 0 0 -48 -45 -44 0 0 0 0 0 0 0 0 0 0 0 0 0 0 -1 0 0 0 0 0 0 0 0 0 -1 0 0 0 0 0 0 0 0 0 0 0 0 0 0 0 0
0 0 0 0 0 0 0 0 0 -78 -58 -51 -39 0 0 0 0 0 0 0 0 0 0 0 0 0 0 -1 0 0 0 0 0 0 0 0 0 0 0 0 0 0 0 0 0 0 0 0 0 0 0 0 0 0
0 0 0 0 0 0 0 0 0 0 0 -57 -26 0 0 0 0 -6 0 0 0 0 0 0 0 0 0 -1 0 0 0 0 0 0 0 -1 -1 0 0 0 0 0 0 0 0 0 0 0 0 0 0 0 0 0
-4 0 0 0 0 0 0 0 0 0 0 -16 0 0 0 0 0 0 0 0 0 0 0 0 -2 0 0 0 0 0 0 0 -6 -1 0 0 0 0 0 0 0 0 0 0 0 0 0 0 0 0 0 0 0 0
0 0 0 0 0 0 0 0 0 0 0 -8 -7 -4 -21 -10 0 0 0 0 0 0 0 0 0 0 0 0 0 0 -21 -4 -10 0 0 0 0 0 0 0 0 0 0 0 0 0 0 0 0 0 0 0 0 0
0 0 0 0 0 0 0 0 0 0 -21 0 -9 -2 -16 0 -8 0 -5 -6 -2 0 0 0 -1 0 0 0 0 0 0 0 0 0 0 0 -1 0 0 0 0 0 0 0 0 0 0 0 0 0 0 0 0 0
0 0 0 0 0 0 0 0 0 0 -13 -2 -7 0 0 -2 -1 -1 -4 -1 -1 0 0 -2 -2 0 0 0 0 0 0 0 0 0 0 0 0 0 0 0 0 0 0 0 0 -1 0 0 0 0 0 -1 0 0
-3 -1 0 0 0 0 0 0 0 0 0 -3 -4 0 0 -3 0 0 0 0 0 0 0 0 0 0 -3 -3 0 0 -4 -7 0 0 0 0 0 0 0 0 0 0 0 0 0 -1 -1 0 0 0 -1 0 0 0
0 -3 0 0 0 0 0 0 0 0 0 0 -1 0 0 0 0 0 0 0 0 0 0 0 0 0 -3 -6 0 0 0 -3 -1 -8 -2 -4 0 0 0 0 0 0 0 0 0 0 0 0 0 0 -1 0 0 0
-1 -1 0 0 0 0 0 0 0 0 0 0 0 0 0 0 0 0 0 0 -1 0 0 0 -3 0 0 0 0 0 0 0 0 0 0 0 0 0 0 0 0 0 0 0 0 0 0 -2 -2 0 -1 0 0 0
-4 0 0 0 0 0 0 0 0 0 0 0 0 0 0 0 -5 0 0 0 0 -11 -10 -9 -1 0 0 0 0 0 0 0 0 0 0 0 0 0 0 0 0 0 0 0 0 0 0 0 -1 0 0 0 0 0
0 0 0 0 0 0 0 0 0 0 0 0 -2 -1 0 -8 0 0 0 0 -1 0 0 0 0 0 0 0 0 0 0 0 0 0 0 0 0 0 0 0 0 0 -1 0 0 0 0 0 0 0 0 0 0 0
0 0 0 0 0 0 0 -1 0 0 0 0 0 0 0 0 -1 -2 0 -1 0 0 0 0 0 0 -1 0 0 0 -1 0 0 -2 0 0 0 0 0 0 0 0 0 -1 0 0 0 0 0 0 0 0 -1 0
0 0 0 0 0 0 0 0 0 0 0 0 0 0 0 0 0 -1 0 0 0 0 0 0 0 0 0 0 0 -3 -1 -1 0 0 0 0 -1 -1 0 0 0 0 -1 0 0 -1 0 0 0 0 0 0 0 0
0 0 0 0 0 0 0 0 0 0 0 0 0 0 -1 -1 0 0 0 0 0 0 0 0 0 0 0 0 0 0 0 0 0 0 0 0 0 0 -1 0 0 0 -2 -1 0 0 -2 0 0 0 0 0 0 0
0 0 0 0 0 0 0 0 0 0 0 0 0 0 0 0 0 0 0 0 0 0 0 0 0 0 0 0 0 0 0 0 0 0 0 0 0 0 0 0 0 0 0 0 0 0 0 0 0 0 0 0 0 0
0 0 0 0 0 0 0 0 0 0 0 0 0 0 0 0 0 -2 0 0 0 0 0 0 0 0 0 0 0 0 0 0 0 0 0 0 0 0 0 0 0 0 0 0 0 0 0 0 0 0 0 0 0 0
0 0 0 0 0 0 0 0 0 0 0 0 0 0 0 0 0 0 0 0 0 0 0 0 0 0 0 0 0 0 0 0 0 0 0 0 0 0 0 0 0 0 0 0 0 0 0 0 0 0 0 0 0 0
0 0 0 0 0 0 0 0 0 0 0 0 0 0 0 0 0 0 0 0 0 0 0 0 0 0 0 0 0 0 0 0 0 0 0 0 0 0 0 0 0 0 0 0 0 0 0 0 0 0 0 0 0 0
0 0 0 0 0 0 0 0 0 0 0 0 0 0 0 0 0 -1 0 0 0 0 0 0 0 0 0 0 0 0 0 0 0 0 0 0 0 0 0 0 0 0 0 0 0 0 0 0 0 0 0 0 0 0
Wind_Speed
17 19 20 22 23 22 21 21 21 3 20 19 24 25 25 25 26 15 6 9 5 4 1 2 7 8 20 13 9 6 5 3 1 7 8 4 4 7 10 15 12 13 11 6 7 6 8 13 12 14 3 6 2 1
16 18 19 21 22 23 23 21 20 22 9 17 18 23 24 25 29 19 3 6 8 2 3 3 7 15 18 15 13 13 9 7 5 5 4 6 5 7 12 7 16 12 13 11 11 8 6 3 14 7 3 5 2 3
15 17 18 20 22 23 25 23 21 20 16 14 17 16 24 26 28 15 4 5 4 2 2 1 3 13 16 7 7 7 2 9 7 2 2 3 5 8 8 13 12 10 16 10 9 11 6 9 2 6 4 4 5 7
13 16 17 19 20 22 24 26 20 22 25 6 20 20 23 27 27 13 5 4 4 3 3 2 5 8 14 8 2 8 17 11 10 6 5 2 3 5 6 9 12 5 12 10 10 4 7 9 8 9 8 7 7 5
12 14 15 17 18 20 22 23 23 21 23 22 11 12 20 18 22 10 7 4 3 2 2 2 1 13 11 2 12 14 16 14 5 4 3 2 2 2 3 2 5 6 8 11 8 10 9 12 10 8 9 8 6 7
11 13 14 15 17 18 18 19 19 19 16 23 24 28 26 21 16 6 3 2 3 3 3 2 1 7 11 16 18 15 10 7 4 4 3 4 4 4 5 7 6 9 5 5 3 8 8 9 11 9 8 7 6 5
11 13 14 14 16 17 18 17 15 12 12 12 13 19 15 7 2 3 1 6 2 2 3 4 4 3 5 5 4 5 8 5 4 3 2 4 5 4 3 4 11 10 9 8 11 11 11 10 9 8 6 6 7 3
13 15 15 15 16 17 18 19 18 12 7 8 12 12 17 21 16 6 7 5 3 3 1 3 4 3 5 1 4 2 4 2 4 3 2 5 5 3 4 8 15 13 13 10 9 4 1 5 4 5 4 5 6 7
15 12 15 15 16 18 20 21 21 15 6 5 13 17 8 4 2 5 4 4 2 1 3 2 6 5 1 5 5 3 3 4 1 4 4 6 4 4 7 15 14 13 10 9 8 6 7 7 7 7 7 8 8 8
11 11 13 14 15 17 20 23 24 15 9 9 3 2 3 3 3 4 5 5 4 3 3 3 3 6 3 3 3 4 2 3 3 3 4 3 4 6 7 11 10 7 6 5 7 8 8 7 7 7 8 8 7 7
12 10 11 12 15 17 20 23 26 21 6 2 3 3 3 2 4 1 3 4 3 4 3 4 6 7 4 4 4 2 3 3 5 5 5 5 6 10 10 8 7 7 5 4 2 4 1 2 5 6 7 6 6 6
17 17 17 16 17 18 19 20 22 11 6 4 3 4 2 3 3 4 3 2 4 4 4 5 7 5 4 2 2 2 2 3 4 7 4 5 6 14 11 10 8 7 6 6 4 4 3 4 5 9 8 7 5 3
18 17 18 19 20 20 20 19 18 11 8 3 1 3 4 5 4 2 4 2 4 3 4 6 7 4 5 2 3 1 2 3 7 4 4 3 11 13 12 11 9 8 8 7 5 4 4 3 2 3 3 3 0 2
12 14 16 20 20 19 19 19 17 9 4 3 3 4 4 3 4 4 6 5 2 3 8 8 3 3 3 3 2 4 3 4 4 6 6 7 13 13 11 9 10 9 7 7 6 4 4 4 3 2 2 1 4 5
9 10 13 17 22 20 18 19 13 4 3 3 4 4 4 1 3 2 1 2 1 5 6 6 3 3 3 3 2 4 5 5 5 5 5 9 13 11 10 10 9 8 5 3 4 3 4 4 3 4 3 2 4 5
15 10 9 22 22 20 16 13 4 3 2 3 4 4 4 3 2 0 3 6 4 3 1 0 2 3 3 4 4 5 5 5 4 4 6 10 10 10 10 9 7 7 6 5 4 4 4 4 4 4 4 4 5 5
13 6 15 20 23 18 9 6 3 4 3 3 3 3 2 5 4 2 2 2 2 1 1 1 3 2 2 3 4 4 2 4 5 6 6 9 10 10 8 8 7 7 7 6 6 6 6 6 5 6 7 6 6 5
5 8 17 21 19 7 3 5 3 3 3 2 2 2 1 2 2 1 1 1 3 3 2 1 1 4 4 3 2 3 4 3 4 6 6 7 9 11 9 10 7 7 8 7 7 7 7 6 6 4 6 6 6 6
9 10 16 18 13 5 5 4 4 2 3 2 2 2 2 1 2 1 1 2 2 4 2 2 2 4 2 1 5 5 6 6 5 6 7 7 8 9 7 9 8 8 8 8 8 6 6 5 4 5 6 5 4 4
11 8 14 15 12 3 3 2 2 3 0 3 2 2 1 1 0 2 3 4 2 3 4 3 3 2 2 1 3 6 6 7 7 7 7 6 7 10 9 9 6 7 7 7 6 4 6 4 3 3 2 3 3 4
7 8 8 8 3 3 3 2 2 3 3 2 2 3 1 2 3 4 4 3 4 3 4 4 2 2 3 3 3 4 7 8 7 7 9 8 7 6 7 7 7 6 5 5 5 5 4 4 4 4 3 3 3 3
4 9 3 4 2 1 3 0 2 0 3 2 2 4 4 3 4 4 3 5 4 6 4 3 3 4 5 6 5 6 8 7 5 4 5 9 8 7 6 7 7 6 5 6 5 5 4 4 4 6 5 4 5 3
7 2 2 2 2 2 1 1 4 4 3 2 3 3 3 3 1 3 4 5 4 4 3 4 2 4 5 6 7 7 8 8 7 6 6 6 7 6 5 6 6 5 5 5 4 5 5 4 5 5 4 5 4 4
1 3 3 2 2 1 1 3 3 3 4 4 4 4 3 3 4 4 4 4 3 3 4 5 4 4 6 7 7 7 7 5 5 6 6 7 6 7 6 6 5 5 3 4 3 3 5 3 4 5 4 3 5 5
3 3 4 4 3 4 4 3 3 3 4 4 3 4 2 3 3 4 4 3 4 3 3 2 4 5 5 6 6 5 7 6 6 8 6 6 6 6 5 5 5 5 4 3 4 4 3 3 4 4 4 4 5 6
4 2 3 1 2 4 0 3 4 4 3 3 4 1 2 3 5 5 3 5 2 2 2 1 1 3 5 3 5 5 6 6 6 5 6 6 6 7 7 8 7 5 5 4 4 5 6 5 5 6 6 6 6 5
5 5 3 1 2 3 4 4 5 4 5 5 3 1 3 5 6 2 3 6 4 4 4 4 3 4 3 1 0 0 2 4 5 4 5 4 3 5 6 8 8 7 7 7 6 5 5 5 3 4 5 5 5 4
2 4 5 3 2 2 4 3 4 4 3 2 3 5 5 3 4 3 4 3 4 5 4 3 4 3 4 4 1 3 3 4 6 8 6 6 5 3 2 3 4 6 6 6 5 4 4 2 1 1 2 3 4 4
4 4 3 1 3 4 5 5 5 1 2 2 3 3 2 3 2 3 3 3 3 4 5 5 3 1 2 2 1 2 5 6 9 11 13 8 6 5 5 5 6 6 5 5 5 4 3 2 3 4 5 3 3 2
4 3 3 4 3 5 4 2 2 1 3 4 5 8 10 10 7 3 4 5 5 6 3 5 5 6 6 5 4 5 3 4 4 5 9 9 7 7 6 5 6 5 5 3 3 5 5 4 5 5 5 5 5 5
3 3 2 4 4 3 3 4 5 7 8 8 9 11 13 11 9 7 7 7 6 6 6 6 6 6 8 7 7 7 7 5 4 2 3 5 8 8 6 6 5 5 5 6 6 6 5 5 5 4 4 3 3 2
3 4 2 3 3 1 5 5 5 7 8 8 10 9 9 9 11 8 4 4 5 7 9 9 7 6 4 5 3 2 3 5 6 5 8 6 6 7 7 6 5 4 5 6 6 7 7 7 6 6 5 4 3 3
2 1 3 3 3 4 2 4 5 4 5 5 5 5 6 6 8 2 3 3 5 6 6 5 4 4 5 6 1 4 5 6 8 7 7 7 7 6 5 5 5 6 7 7 7 7 8 8 7 7 6 4 3 3
Wind_Direction
4 5 8 10 8 7 5 8 14 157 176 190 198 188 186 180 179 178 172 203 191 197 326 43 327 307 205 181 182 146 97 340 107 160 189 114 151 184 198 206 180 176 174 193 197 230 233 240 160 214 318 61 22 301
8 9 9 16 17 9 11 19 28 29 171 196 197 191 186 176 174 174 162 211 209 73 34 20 293 299 321 200 199 170 151 140 187 108 211 125 182 159 184 186 186 189 196 188 198 209 202 274 223 232 10 275 175 199
14 14 13 15 22 17 17 24 32 33 14 182 191 185 180 172 169 165 152 135 77 98 39 346 324 302 311 350 321 127 299 146 176 49 98 98 152 191 184 214 178 221 204 213 196 214 217 219 148 160 185 160 139 132
18 16 14 16 19 21 21 23 37 39 21 67 159 175 170 177 176 158 164 143 91 108 183 172 342 285 297 317 283 224 132 111 100 62 69 129 158 253 218 236 234 189 161 204 216 213 161 211 181 159 147 141 136 118
19 20 14 15 19 21 23 23 28 49 47 38 126 145 179 168 135 108 85 55 43 298 80 102 314 334 356 282 129 129 119 115 96 91 114 134 142 109 6 312 240 175 179 204 208 194 204 188 156 149 160 162 145 143
16 19 17 15 15 18 23 27 27 39 67 80 69 95 104 109 117 92 67 336 27 21 105 111 89 14 42 62 58 57 68 71 87 117 107 146 100 216 178 196 212 176 217 213 177 161 181 140 163 167 176 161 161 160
15 10 12 13 11 10 12 16 30 37 61 82 129 112 102 97 50 69 80 114 160 327 142 142 107 29 346 28 39 50 50 74 80 85 116 162 152 192 194 201 146 145 136 128 125 129 144 166 171 174 194 185 142 208
24 14 3 4 4 4 2 360 1 26 79 118 111 130 133 131 140 90 56 89 207 93 70 101 99 146 350 89 87 66 89 112 36 110 140 137 129 173 206 152 145 151 139 149 161 189 142 146 199 182 216 222 242 248
14 8 10 1 360 1 2 1 2 3 27 154 171 173 174 233 108 99 33 158 185 257 117 168 149 116 352 95 115 107 156 75 187 130 119 159 164 194 180 148 156 163 171 155 148 163 164 191 202 210 217 224 233 237
14 10 8 3 5 7 4 359 353 353 329 301 219 163 82 40 342 197 166 173 176 120 25 61 89 101 128 135 84 110 59 137 118 59 140 221 171 122 138 142 133 143 150 146 177 186 200 206 215 234 229 224 225 229
20 17 10 29 14 8 6 0 349 337 284 57 62 43 3 270 234 66 58 27 43 71 70 43 94 105 30 81 105 326 133 179 154 145 205 190 177 171 144 132 127 128 122 122 77 55 51 278 270 254 216 211 205 210
35 44 36 24 13 8 6 5 357 5 22 9 327 227 245 352 29 69 52 96 32 81 122 136 132 122 102 211 158 194 121 212 121 158 206 192 127 140 149 146 141 138 153 147 146 168 177 211 244 225 241 193 186 167
23 24 23 16 10 5 359 355 354 337 269 247 299 35 15 350 36 36 133 112 104 119 154 138 122 131 160 129 78 186 148 103 142 183 205 140 147 138 160 151 149 154 155 149 132 127 142 146 139 254 179 48 246 140
6 11 12 9 359 354 350 345 341 330 290 15 40 40 7 48 40 6 13 34 70 164 134 124 107 100 145 84 185 108 76 177 211 188 189 146 146 161 147 152 158 149 138 144 133 114 127 130 129 92 55 83 196 175
336 328 347 360 348 344 341 333 316 318 5 46 34 55 62 52 46 38 85 170 229 148 142 141 144 139 117 123 185 129 176 203 220 202 124 143 144 138 149 156 136 138 138 144 125 113 120 125 134 119 117 124 121 136
335 294 2 343 340 338 332 317 332 10 27 52 48 117 121 143 109 158 116 148 164 107 183 258 135 124 183 144 170 201 185 200 163 85 103 114 125 151 150 146 142 140 143 147 130 123 118 133 129 106 95 86 87 105
304 22 350 343 336 316 303 323 346 29 34 47 72 37 334 74 86 49 313 147 140 190 216 200 157 181 139 220 205 188 194 69 117 114 118 131 147 136 138 132 138 148 148 149 140 150 139 120 127 134 117 108 107 104
0 9 1 347 340 314 9 2 351 359 67 58 109 105 76 69 125 183 213 224 243 236 246 33 286 212 213 217 180 109 95 58 100 138 118 120 125 139 153 148 159 162 154 162 151 146 141 152 145 125 122 128 127 132
343 334 347 340 336 300 347 12 330 29 53 77 125 123 94 182 220 235 236 234 262 312 291 241 249 249 242 110 118 120 152 154 143 130 125 125 138 138 145 148 160 156 156 158 157 156 145 158 144 151 151 172 162 165
297 307 346 329 317 303 334 29 285 304 281 54 223 196 199 195 89 219 206 223 222 246 222 222 252 354 342 70 133 154 153 136 137 138 139 144 146 155 159 165 169 158 156 161 152 154 141 151 161 163 168 143 152 181
289 4 329 328 353 331 307 304 197 2 355 296 17 257 192 189 210 205 220 199 206 250 239 242 241 188 95 103 110 123 128 160 160 159 159 157 163 169 168 180 173 175 168 161 165 160 182 187 173 142 163 135 163 148
359 334 312 322 298 310 276 219 350 34 267 346 246 243 232 204 214 217 190 202 241 238 251 266 243 175 159 157 152 139 152 160 152 118 133 140 164 167 169 161 173 180 183 188 185 168 175 175 156 155 141 148 187 172
299 298 263 289 288 251 272 62 250 184 245 239 211 243 234 231 183 163 225 217 229 243 254 226 221 248 182 146 147 143 158 163 181 170 162 169 172 172 166 162 175 170 169 166 166 169 186 135 113 117 143 175 182 155
193 252 283 264 258 264 286 243 207 243 206 220 230 244 227 164 165 229 252 229 141 160 204 188 208 174 166 169 181 170 180 186 188 148 180 155 151 180 174 173 164 168 176 146 167 148 124 151 172 167 158 189 189 190
262 142 283 205 238 232 210 243 270 277 246 228 270 267 156 165 213 230 243 196 148 170 173 214 231 228 213 205 199 159 178 198 185 166 182 176 167 151 132 153 156 152 146 149 136 144 147 172 182 159 188 200 205 207
244 141 262 211 224 254 261 240 215 243 272 266 254 262 244 229 230 239 214 87 106 153 125 24 260 222 228 233 174 202 190 196 198 178 175 189 162 160 172 176 175 182 186 157 145 174 193 172 195 207 203 197 210 226
225 190 182 179 284 268 266 254 268 268 264 233 255 240 227 237 236 113 90 31 42 22 13 359 325 292 303 221 150 88 116 190 219 175 151 173 132 157 180 187 194 180 158 177 163 174 184 173 177 214 218 211 200 199
222 196 189 182 270 241 252 275 253 244 267 25 263 234 242 304 28 48 38 22 356 336 321 303 296 299 289 288 165 135 117 85 82 93 87 74 65 71 157 158 82 120 135 146 158 151 153 143 189 266 252 227 179 181
182 149 148 144 260 242 228 224 246 75 63 287 264 260 301 39 48 326 346 351 332 323 316 307 294 232 273 282 266 196 156 163 167 174 182 176 169 177 172 152 158 158 144 157 157 162 155 203 237 246 259 277 286 217
152 175 195 151 216 233 224 292 309 38 288 292 295 284 278 273 277 315 265 266 279 284 289 302 307 302 279 241 219 206 206 210 227 225 199 195 187 139 156 162 161 151 159 186 182 173 184 210 211 218 228 232 227 229
116 171 229 231 240 251 297 329 291 271 258 260 261 260 267 279 281 273 235 250 259 255 259 251 257 256 261 256 238 224 212 190 196 127 81 115 129 137 154 172 172 169 176 187 194 202 193 192 203 194 194 192 149 240
161 201 210 248 261 249 303 283 284 272 277 266 257 261 270 264 266 272 162 204 233 247 254 256 256 260 275 249 235 101 40 128 174 173 162 150 150 151 159 164 160 175 190 192 190 200 194 220 209 210 190 183 208 227
150 212 259 273 261 272 108 305 281 282 273 270 279 272 279 279 262 277 131 217 253 269 270 271 284 293 315 322 253 124 120 96 89 85 82 83 104 130 152 163 170 181 191 201 202 204 193 205 195 183 178 175 173 180